User: anonymous   Login
Location: Gipe Farm
(40.9466°N, 95.5370°W)
Time: 21:02:43
(UTC-06:00)
Language:

Cosmos 1842 - Orbit

View from above orbital plane
View from above orbital plane
View from above satellite
View from above satellite

Ground track
Ground track

The orbit data is extracted from the following two-line orbital elements,

1 17911U 87038A   17023.06934370  .00001449  00000-0  84663-4 0  9999
2 17911  82.5247 335.4460 0012577  34.2071 325.9967 15.11073051619891
Epoch (UTC): 23 January 2017 01:39:51
Eccentricity: 0.0012577
inclination: 82.5247°
perigee height: 524 km
apogee height: 541 km
right ascension of ascending node: 335.4460°
argument of perigee: 34.2071°
revolutions per day: 15.11073051
mean anomaly at epoch: 325.9967°
orbit number at epoch: 61989

The dashed part of the orbit path shows where the satellite is in the earth's shadow,  

DLR